Home   Weather   Pärnu   Past weeks

Flag for Estonia Past Weather in Pärnu, Estonia — Yesterday and Last 2 Weeks

Now
29 °F

Passing clouds.


Feels Like: 24 °F
Forecast: 15 / 37 °F
Wind: 5 mph from North

Location: Pjarnu

Current Time: Dec 6, 2016 at 5:10:50 am

Latest Report: Dec 6, 2016 at 4:00 am


Visibility: 31 mi

Pressure: 29.90 "Hg

Humidity: 70%

Dew Point: 20 °F

Location of PärnuLocation

Past Weather in Pärnu — Graph

°F

Pärnu Temperature Yesterday

Maximum temperature yesterday: 43 °F (at 12:00 pm)
Minimum temperature yesterday: 35 °F (at 11:00 pm)
Average temperature yesterday: 39 °F

High & Low Weather Summary for the Past Weeks

 TemperatureHumidityPressure
High46 °F (Nov 21, 6:00 am)98% (Nov 23, 8:00 pm)30.22 "Hg (Nov 23, 8:00 pm)
Low19 °F (Dec 4, 5:00 am)69% (Nov 28, 7:00 am)29.21 "Hg (Nov 26, 5:00 pm)
Average34 °F88%29.82 "Hg
* Reported Nov 21 3:00 am — Dec 6 3:00 am, Pärnu, Weather by CustomWeather, © 2016

Note: Actual official high and low records may vary slightly from our data, if they occured in-between our weather recording intervals... More about our weather records

Advertising

Pärnu Weather History for the Previous 24 Hours

Scroll right to see more
 ConditionsComfort  
Time TempWeatherWind HumidityBarometerVisibility
3:00 am
Tue, Dec 6
31 °FOvercast.6 mph70%29.88 "Hg31 mi
2:00 am33 °FOvercast.5 mph78%29.84 "Hg31 mi
1:00 am34 °FOvercast.5 mph73%29.81 "Hg31 mi
12:00 am34 °FOvercast.3 mph72%29.79 "Hg31 mi
11:00 pm
Mon, Dec 5
35 °FOvercast.5 mph70%29.76 "Hg31 mi
10:00 pm36 °FOvercast.6 mph71%29.74 "Hg31 mi
9:00 pm36 °FOvercast.6 mph70%29.72 "Hg31 mi
8:00 pm36 °FPassing clouds.6 mph75%29.68 "Hg31 mi
7:00 pm37 °FPassing clouds.6 mph77%29.66 "Hg31 mi
6:00 pm37 °FPassing clouds.6 mph77%29.65 "Hg31 mi
5:00 pm38 °FPassing clouds.6 mph75%29.63 "Hg31 mi
4:00 pm39 °FPassing clouds.5 mph78%29.62 "Hg31 mi
3:00 pm40 °FOvercast.6 mph78%29.59 "Hg31 mi
2:00 pm42 °FOvercast.6 mph78%29.58 "Hg31 mi
1:00 pm42 °FOvercast.7 mph76%29.57 "Hg31 mi
12:00 pm43 °FOvercast.7 mph77%29.57 "Hg31 mi
11:00 am42 °FOvercast.7 mph85%29.57 "Hg31 mi
10:00 am40 °FLight rain. Overcast.7 mph88%29.57 "Hg15 mi
9:00 am40 °FLight rain. Overcast.6 mph88%29.59 "Hg22 mi
8:00 am40 °FLight rain. Overcast.7 mph86%29.60 "Hg28 mi
7:00 am40 °FOvercast.7 mph85%29.63 "Hg31 mi
6:00 am40 °FPassing clouds.7 mph87%29.65 "Hg31 mi
5:00 am39 °FOvercast.6 mph89%29.68 "Hg31 mi
Weather by CustomWeather, © 2016

See weather overviewHow to use our weather pages